Wind_Speed
16 15 14 14 13 13 13 13 12 12 11 10 9 8 7 7 7 7 9 10 11 12 13 13 13 12 12 12 12 12 12 13 15 16 17 18 21 24 25 26 26 26
16 15 15 14 15 15 15 15 14 14 13 11 11 10 9 8 8 8 9 11 12 13 14 14 13 14 14 14 15 15 14 13 13 14 16 17 19 21 24 27 27 27
17 16 15 14 15 15 16 16 16 15 14 14 13 12 10 10 10 10 11 12 13 14 14 14 14 14 15 16 17 18 18 18 16 14 15 16 18 19 21 24 27 29
18 16 15 14 14 15 16 16 17 17 16 15 14 12 12 12 12 12 12 14 14 14 14 14 14 14 16 16 17 18 19 19 19 18 17 17 17 19 19 20 23 26
18 17 15 14 13 14 15 15 16 16 16 15 14 14 14 13 13 13 14 15 15 14 14 13 14 15 16 17 18 18 19 19 19 20 20 20 19 19 20 21 22 23
19 18 16 15 14 14 14 14 14 15 15 15 15 15 15 14 14 14 15 15 14 14 13 13 15 16 17 18 18 19 19 19 20 21 22 23 22 21 21 22 23 23
21 20 18 16 15 14 14 13 14 14 14 15 15 16 15 15 15 15 15 15 14 13 13 14 16 17 18 19 20 20 20 20 21 22 24 25 25 24 23 23 24 24
23 22 20 18 16 16 15 14 14 14 14 15 16 16 16 15 15 15 15 14 13 12 13 14 17 18 19 20 21 21 21 21 22 24 25 26 26 27 25 24 24 24
25 25 23 20 18 17 16 15 14 14 15 15 16 16 16 16 15 15 14 14 13 13 14 16 18 19 20 21 22 23 23 24 24 24 25 26 27 27 25 23 23 24
27 27 25 23 20 18 17 16 15 15 15 15 16 16 16 15 15 14 13 13 13 14 16 17 19 20 22 23 23 24 25 25 25 26 26 27 27 25 23 22 22 23
29 29 28 25 22 20 18 17 16 16 16 15 16 16 15 15 14 13 12 13 14 16 18 19 21 22 23 24 24 25 26 26 27 26 27 27 26 24 23 22 23 24
31 31 30 27 23 21 19 17 16 16 16 15 15 15 14 13 12 11 12 14 15 17 19 21 22 23 23 24 24 25 26 27 27 27 27 27 26 24 24 24 24 24
33 32 31 28 24 22 20 18 16 16 16 15 14 14 13 11 10 11 12 14 16 19 21 22 22 22 23 23 24 25 26 27 28 28 29 29 27 24 24 24 24 24
34 33 32 28 24 23 21 18 17 15 15 14 13 12 11 10 10 11 13 15 17 19 21 21 21 22 23 24 26 27 29 29 30 30 30 30 29 27 25 25 25 25
36 34 32 28 25 23 21 18 16 15 14 13 11 10 10 10 10 12 14 17 19 20 21 21 22 23 25 27 29 31 32 33 33 32 31 30 30 30 30 30 29 29
37 34 31 28 25 23 20 17 16 15 13 11 10 10 10 10 11 14 17 19 20 21 21 22 23 25 27 29 31 33 34 35 35 33 31 29 29 29 30 31 32 32
34 32 28 26 24 21 19 17 15 13 11 10 10 10 11 11 13 16 18 20 20 21 22 23 24 26 28 31 33 34 35 35 34 33 31 29 29 29 29 29 30 30
32 30 26 25 23 20 19 16 13 10 9 10 11 11 12 13 15 17 19 20 21 22 22 24 26 28 30 32 34 35 35 34 34 33 32 30 30 30 30 30 31 31
31 29 27 25 22 20 18 14 11 10 10 10 11 12 13 14 16 19 21 21 21 21 23 25 27 29 31 33 34 35 35 34 33 33 33 32 32 32 32 33 34 35
32 30 28 25 22 20 17 13 11 10 10 10 12 13 15 17 19 21 21 20 20 22 24 27 28 30 32 33 34 34 34 34 34 35 35 35 35 35 36 37 38 38
33 30 28 25 21 19 16 12 10 9 10 12 14 16 18 20 21 21 19 19 21 23 26 28 28 29 29 29 30 30 31 32 34 36 37 38 39 39 39 39 39 39
31 27 24 22 19 17 14 11 10 10 11 14 16 18 20 21 20 19 19 19 21 23 26 27 27 26 26 27 28 28 29 30 31 33 35 37 38 39 39 39 39 38
29 25 22 20 17 14 12 11 11 12 14 16 17 19 20 20 19 18 18 19 21 24 26 27 27 26 27 29 31 31 31 30 31 32 34 35 37 37 38 39 39 38
29 24 22 20 16 13 12 13 14 14 15 15 16 18 18 18 17 16 17 18 22 26 27 27 29 31 32 34 36 35 34 33 33 34 36 37 37 38 38 39 39 39
29 26 23 19 15 14 15 14 14 13 14 15 16 16 16 14 14 16 17 19 23 27 28 29 31 33 34 38 40 38 35 34 34 36 37 38 39 40 40 40 40 41
29 27 23 18 15 14 14 13 12 12 13 13 12 12 11 13 15 17 19 22 25 28 29 30 32 35 37 41 41 38 35 34 34 36 37 38 39 40 40 41 41 40
Wind_Direction
230 233 238 242 243 245 249 250 247 244 243 245 250 257 265 279 294 306 314 319 319 318 319 320 321 321 322 323 322 321 318 308 296 287 277 269 265 263 261 260 258 258
230 234 238 241 243 245 247 249 248 247 247 246 246 250 258 269 280 291 298 302 305 308 311 312 313 318 324 330 330 330 330 325 313 298 288 281 275 268 263 261 260 259
231 234 236 239 243 245 247 248 247 246 247 246 244 246 252 258 267 277 286 294 299 303 305 307 311 321 330 333 333 332 330 329 326 316 301 291 285 280 273 266 262 260
231 231 232 235 240 244 246 247 247 246 246 246 247 248 249 253 262 273 284 291 296 299 301 304 314 325 330 330 329 329 327 325 324 322 315 304 295 289 285 280 271 264
231 230 228 229 232 237 242 245 247 248 249 250 250 250 251 256 263 273 283 288 293 296 298 307 319 326 327 325 324 323 322 321 318 317 315 311 305 295 288 287 283 276
228 227 225 224 227 232 238 243 246 248 249 250 250 251 256 261 266 274 283 287 290 293 300 314 322 323 321 320 319 318 317 315 313 312 311 310 308 302 293 288 284 282
226 224 223 224 225 230 236 240 243 245 246 247 248 253 258 262 269 278 283 285 287 295 309 318 317 315 315 314 314 313 311 309 307 306 306 306 305 303 297 290 285 281
226 224 224 225 226 229 233 236 240 242 244 246 250 255 259 264 273 279 282 285 293 306 312 312 309 308 309 308 308 308 305 303 301 299 300 301 301 301 298 292 287 281
227 225 225 225 226 230 232 234 237 240 242 247 251 255 260 267 274 279 283 291 302 309 305 301 301 300 300 302 302 302 301 299 298 297 297 298 298 299 298 295 290 284
226 224 225 225 227 230 233 234 236 239 242 245 249 253 260 267 274 279 288 300 306 303 300 297 296 295 295 296 296 296 296 296 296 296 296 297 297 297 298 299 297 291
225 225 226 226 227 230 232 234 236 239 241 244 247 253 261 268 274 285 297 304 303 299 298 296 294 294 293 294 294 293 293 293 293 293 293 294 295 296 296 295 295 293
225 225 226 226 227 230 232 233 235 239 241 243 248 254 261 268 278 294 301 301 300 299 297 295 295 296 296 296 296 294 293 293 291 290 289 288 289 291 291 290 289 288
226 226 226 226 227 229 231 233 235 239 241 244 249 253 259 269 283 294 298 299 300 297 295 296 298 300 302 303 303 302 300 298 295 292 288 286 286 287 287 288 287 287
226 227 226 224 226 228 230 231 233 237 240 242 247 252 260 272 281 291 298 299 297 294 294 298 302 304 306 307 308 307 305 302 300 296 291 286 284 283 282 282 282 283
225 225 224 223 224 226 227 229 232 235 237 239 246 254 262 271 281 292 298 296 295 296 298 302 303 305 306 307 307 306 305 304 302 300 294 288 283 279 278 277 276 277
225 223 222 222 224 225 225 227 229 231 234 238 247 257 263 273 283 291 296 296 297 298 298 299 300 302 303 304 304 305 305 304 302 300 296 291 286 283 279 277 276 275
228 226 224 225 226 224 223 225 227 230 234 242 253 260 266 275 284 291 296 297 295 293 293 294 296 298 301 302 303 304 304 303 300 298 295 291 289 287 285 283 281 279
227 227 229 229 227 225 224 225 226 229 237 248 257 263 270 278 283 289 292 291 289 288 290 291 294 297 300 302 303 304 303 301 297 295 294 291 290 289 287 287 286 284
223 226 229 226 225 227 226 223 224 231 241 250 258 266 271 274 276 281 286 287 287 288 290 293 297 300 301 301 302 302 301 298 294 291 290 288 287 287 286 286 286 287
223 223 221 218 222 225 223 222 226 233 242 252 260 265 266 267 272 280 286 287 287 290 295 299 302 302 303 303 302 301 298 294 290 287 285 283 282 282 282 283 283 285
223 219 214 213 216 216 217 222 227 234 246 252 256 260 262 268 277 283 285 286 291 299 303 304 305 307 309 310 309 307 302 295 290 286 283 281 280 280 280 280 281 281
219 213 211 209 206 208 216 223 226 232 240 247 253 261 267 274 280 282 286 293 301 307 306 305 308 313 317 320 319 316 309 302 296 291 287 284 282 280 280 279 279 279
204 203 205 202 200 207 216 220 224 230 238 247 257 265 271 277 281 286 296 304 310 312 310 311 315 320 323 324 324 321 315 308 302 297 293 290 287 284 281 278 277 276
196 196 197 194 195 205 212 219 229 236 243 253 262 269 276 282 289 301 308 309 312 314 314 316 319 322 324 324 324 322 317 309 303 299 294 292 290 288 285 281 278 275
190 188 188 188 191 203 213 223 233 240 251 261 268 276 285 295 307 314 309 303 307 314 316 317 318 319 321 321 321 320 316 309 303 298 293 291 289 287 286 283 280 277
183 181 184 187 194 206 215 226 237 246 258 268 278 291 306 317 318 311 301 300 308 314 315 316 317 316 317 319 319 318 313 307 301 295 292 290 288 286 286 285 283 280
Height
1521 1522 1523 1524 1525 1525 1526 1527 1527 1527 1528 1528 1528 1528 1528 1529 1529 1529 1528 1528 1528 1528 1528 1528 1528 1527 1527 1527 1526 1526 1525 1524 1523 1523 1523 1523 1523 1523 1522 1522 1523 1523
1519 1520 1521 1522 1523 1523 1524 1525 1525 1526 1526 1527 1527 1527 1527 1528 1528 1528 1528 1528 1528 1528 1527 1527 1526 1526 1525 1524 1524 1523 1523 1522 1522 1521 1521 1520 1520 1520 1519 1519 1519 1519
1517 1518 1519 1520 1520 1521 1522 1523 1523 1524 1525 1525 1526 1526 1526 1527 1527 1527 1527 1527 1527 1526 1525 1525 1524 1524 1523 1522 1521 1520 1520 1519 1519 1519 1519 1518 1518 1517 1516 1516 1516 1516
1515 1516 1517 1518 1518 1519 1520 1520 1521 1522 1523 1523 1524 1524 1525 1525 1526 1526 1526 1526 1525 1524 1524 1523 1522 1521 1521 1520 1519 1518 1518 1517 1516 1516 1516 1516 1515 1514 1514 1513 1513 1513
1513 1514 1515 1516 1516 1517 1518 1518 1519 1520 1521 1521 1522 1523 1523 1524 1524 1524 1524 1524 1523 1523 1522 1521 1520 1519 1519 1518 1517 1517 1516 1515 1514 1514 1513 1513 1512 1512 1511 1510 1509 1509
1510 1511 1512 1513 1514 1515 1516 1516 1517 1518 1519 1520 1521 1521 1522 1522 1522 1523 1522 1522 1521 1521 1520 1519 1518 1517 1517 1516 1515 1514 1514 1513 1513 1512 1511 1510 1509 1509 1509 1508 1507 1506
1507 1509 1510 1511 1512 1513 1514 1514 1515 1516 1517 1518 1519 1519 1520 1520 1521 1520 1520 1520 1519 1518 1517 1516 1516 1515 1515 1514 1513 1512 1512 1511 1510 1510 1509 1508 1507 1506 1506 1505 1504 1503
1505 1507 1508 1509 1510 1511 1512 1512 1513 1514 1515 1516 1517 1518 1518 1518 1519 1518 1518 1517 1517 1516 1515 1514 1514 1513 1512 1512 1511 1510 1510 1509 1508 1507 1506 1505 1504 1504 1503 1502 1501 1501
1502 1504 1505 1506 1507 1508 1509 1510 1511 1512 1513 1514 1515 1516 1516 1516 1516 1516 1516 1515 1514 1513 1513 1512 1512 1511 1510 1510 1509 1508 1507 1507 1506 1505 1504 1503 1502 1501 1500 1499 1499 1498
1499 1501 1503 1504 1505 1506 1507 1508 1509 1510 1511 1512 1513 1514 1514 1514 1514 1514 1514 1513 1512 1512 1511 1511 1510 1509 1508 1508 1507 1506 1505 1504 1503 1502 1501 1500 1499 1498 1497 1497 1496 1495
1496 1498 1499 1500 1502 1503 1504 1506 1507 1508 1509 1510 1511 1512 1512 1513 1512 1512 1511 1511 1511 1510 1509 1509 1508 1507 1506 1506 1505 1504 1503 1501 1500 1499 1498 1497 1496 1495 1495 1494 1494 1493
1491 1494 1495 1497 1499 1501 1502 1503 1505 1506 1507 1508 1509 1510 1510 1511 1510 1510 1509 1509 1509 1508 1507 1507 1506 1505 1504 1503 1503 1501 1500 1499 1498 1496 1495 1494 1493 1493 1492 1491 1491 1490
1487 1489 1491 1494 1496 1498 1500 1501 1502 1504 1505 1506 1507 1508 1508 1509 1508 1508 1508 1507 1507 1506 1505 1504 1504 1503 1502 1501 1500 1499 1498 1496 1495 1494 1492 1491 1490 1489 1489 1488 1487 1487
1484 1486 1488 1490 1493 1495 1497 1499 1500 1501 1502 1504 1505 1506 1506 1506 1506 1506 1506 1505 1505 1504 1503 1502 1501 1500 1499 1498 1497 1496 1495 1493 1492 1490 1489 1487 1486 1485 1485 1485 1484 1484
1480 1482 1485 1488 1490 1492 1494 1496 1497 1499 1500 1501 1503 1503 1504 1504 1504 1504 1503 1503 1502 1501 1500 1499 1498 1498 1497 1496 1494 1493 1492 1490 1488 1487 1485 1483 1482 1481 1481 1480 1480 1480
1479 1481 1483 1486 1488 1490 1492 1493 1495 1497 1498 1499 1500 1501 1501 1501 1501 1501 1501 1500 1500 1498 1498 1497 1496 1495 1494 1493 1492 1490 1488 1486 1484 1482 1481 1479 1478 1476 1476 1475 1475 1475
1481 1483 1484 1486 1487 1489 1490 1491 1493 1495 1496 1497 1498 1498 1499 1499 1499 1499 1498 1497 1497 1496 1495 1495 1494 1493 1491 1490 1489 1487 1485 1483 1480 1479 1477 1475 1474 1472 1471 1470 1470 1470
1478 1482 1483 1485 1487 1488 1488 1489 1491 1492 1494 1495 1496 1496 1496 1496 1496 1496 1495 1495 1494 1493 1493 1492 1491 1490 1488 1487 1485 1483 1481 1479 1477 1475 1473 1471 1470 1468 1467 1466 1465 1465
1475 1477 1479 1482 1484 1486 1487 1488 1488 1490 1491 1493 1494 1494 1494 1494 1493 1493 1492 1492 1491 1491 1490 1489 1488 1486 1484 1482 1480 1478 1477 1475 1473 1471 1469 1468 1466 1465 1463 1462 1461 1460
1472 1473 1474 1477 1480 1484 1485 1486 1486 1487 1489 1490 1491 1492 1492 1491 1490 1490 1490 1489 1489 1489 1488 1486 1484 1482 1480 1478 1476 1474 1472 1470 1469 1467 1465 1463 1462 1460 1459 1458 1456 1455
1469 1470 1471 1473 1476 1481 1483 1484 1484 1485 1486 1488 1489 1490 1489 1489 1488 1487 1487 1487 1487 1486 1484 1482 1481 1479 1476 1474 1471 1469 1468 1466 1464 1462 1460 1458 1457 1455 1454 1453 1452 1450
1468 1471 1473 1473 1475 1479 1481 1482 1482 1482 1484 1486 1487 1487 1487 1486 1485 1485 1485 1484 1483 1482 1481 1479 1477 1476 1473 1470 1468 1466 1464 1461 1459 1457 1455 1453 1451 1450 1449 1447 1446 1445
1465 1469 1473 1475 1476 1478 1480 1481 1481 1481 1482 1483 1484 1484 1484 1484 1483 1482 1482 1481 1480 1479 1478 1476 1473 1471 1469 1466 1464 1462 1460 1457 1454 1452 1449 1447 1445 1444 1443 1441 1440 1440
1459 1465 1470 1473 1475 1477 1479 1480 1480 1481 1481 1481 1481 1481 1481 1481 1480 1480 1479 1478 1478 1477 1474 1472 1469 1467 1465 1463 1460 1458 1456 1452 1449 1446 1444 1441 1439 1438 1437 1435 1434 1434
1455 1461 1466 1470 1472 1475 1477 1478 1479 1479 1479 1478 1478 1478 1478 1478 1478 1477 1477 1476 1475 1473 1471 1468 1465 1463 1461 1459 1456 1454 1451 1448 1445 1442 1438 1436 1434 1432 1430 1429 1428 1427
1452 1458 1464 1467 1470 1473 1475 1476 1476 1476 1476 1475 1475 1476 1475 1475 1475 1475 1474 1474 1472 1470 1467 1465 1462 1459 1457 1455 1452 1449 1447 1444 1441 1437 1433 1430 1428 1426 1423 1422 1421 1420